VA3PPY Weather Reports


time (UTC)temp
F
wind
direction
speed
knots
gust
knots
rain 1hr
in
rain 24hr
in
rain mn
in
humidity
%
barometer
mb
20260502123008 39 317 1.7 6.1 0.00 0.00 0.00 73 1017.2
20260502121510 39 302 2.6 7.0 0.00 0.00 0.00 74 1017.0
20260502114509 38 319 0.9 4.3 0.00 0.00 0.00 81 1017.0
20260502113008 37 274 0.9 5.2 0.00 0.00 0.00 80 1016.8
20260502111508 37 289 0.9 4.3 0.00 0.00 0.00 81 1016.8
20260502110008 38 301 1.7 7.8 0.00 0.00 0.00 80 1016.7
20260502104514 38 286 0.9 7.8 0.00 0.00 0.00 81 1016.6
20260502103009 37 319 1.7 6.1 0.00 0.00 0.00 79 1016.5
20260502101508 37 292 1.7 6.1 0.00 0.00 0.00 79 1016.5
20260502091509 37 311 0.9 7.8 0.00 0.00 0.00 74 1016.3
20260502071509 38 281 1.7 7.0 0.00 0.00 0.00 70 1015.8
20260502070010 37 323 1.7 5.2 0.00 0.00 0.00 71 1015.9
20260502064517 38 296 1.7 4.3 0.00 0.00 0.00 72 1016.3
20260502063014 37 316 0.0 4.3 0.00 0.00 0.00 72 1016.3
20260502061510 38 317 0.9 5.2 0.00 0.00 0.00 73 1016.4
20260502060009 38 307 1.7 5.2 0.00 0.00 0.00 72 1016.4
20260502054509 38 316 0.9 4.3 0.00 0.00 0.00 73 1016.5
20260502053012 38 300 1.7 6.1 0.00 0.00 0.00 71 1016.4
20260502051510 38 281 0.9 6.1 0.00 0.00 0.00 72 1016.4
20260502050013 38 304 1.7 5.2 0.00 0.00 0.00 73 1016.3
20260502044509 37 316 0.0 5.2 0.00 0.00 0.00 75 1016.3
20260502043010 37 300 1.7 6.1 0.00 0.00 0.00 74 1016.4
20260502041516 37 321 0.0 2.6 0.00 0.00 0.00 75 1016.4
20260502040010 37 302 0.9 3.5 0.00 0.00 0.00 76 1016.2
20260502034510 37 305 0.9 3.5 0.00 0.00 0.00 76 1016.3
20260502033013 37 289 1.7 5.2 0.00 0.00 0.00 77 1016.3
20260502031510 37 308 0.9 6.1 0.00 0.00 0.00 78 1016.2
20260502030019 37 327 0.0 6.1 0.00 0.00 0.00 78 1016.2
20260502024510 37 329 1.7 7.8 0.00 0.00 0.00 78 1016.3
20260502023011 37 335 0.9 5.2 0.00 0.00 0.00 78 1016.3
20260502021510 37 316 1.7 6.1 0.00 0.00 0.00 79 1016.2
20260502020011 37 318 2.6 7.0 0.00 0.00 0.00 79 1016.0
20260502014510 37 321 2.6 6.1 0.00 0.00 0.00 78 1015.5
20260502013011 37 332 1.7 6.1 0.00 0.00 0.00 78 1015.7
20260502011510 37 359 1.7 12.2 0.00 0.00 0.00 78 1015.6
20260502010011 37 336 2.6 7.0 0.00 0.00 0.00 78 1015.5
20260502004511 37 327 2.6 7.0 0.00 0.00 0.00 78 1015.4
20260502003011 38 319 2.6 7.8 0.00 0.00 0.00 76 1015.3
20260502001514 38 307 1.7 7.8 0.00 0.00 0.00 76 1015.2
20260502000015 38 307 1.7 7.8 0.00 0.00 0.00 75 1015.0
20260501234511 38 19 1.7 8.7 0.00 0.00 0.00 74 1015.0
20260501233011 38 30 3.5 10.4 0.00 0.00 0.00 73 1014.9
20260501231511 38 319 2.6 8.7 0.00 0.00 0.00 73 1014.9
20260501230014 39 22 2.6 7.8 0.00 0.00 0.00 71 1014.9
20260501224511 39 18 3.5 8.7 0.00 0.00 0.00 72 1015.0
20260501223011 39 345 3.5 9.6 0.00 0.00 0.00 73 1014.9
20260501221516 40 24 3.5 11.3 0.00 0.00 0.00 73 1014.7
20260501220014 41 30 1.7 11.3 0.00 0.00 0.00 75 1014.6
20260501214512 39 354 3.5 12.2 0.00 0.00 0.00 76 1014.6
20260501213012 39 25 2.6 13.0 0.00 0.00 0.00 79 1014.5
20260501211512 41 1 2.6 10.4 0.00 0.00 0.00 77 1014.4
20260501210012 40 323 4.3 8.7 0.00 0.00 0.00 76 1014.3
20260501204512 40 3 1.7 7.8 0.00 0.00 0.00 80 1014.3
20260501203012 40 287 2.6 9.6 0.00 0.00 0.00 76 1014.4
20260501201512 42 308 3.5 12.2 0.00 0.00 0.00 74 1014.4
20260501200014 43 353 3.5 8.7 0.00 0.00 0.00 77 1014.2
20260501194512 42 2 4.3 10.4 0.00 0.00 0.00 78 1014.2
20260501193030 41 297 4.3 9.6 0.00 0.00 0.00 78 1014.2
20260501191513 42 11 2.6 11.3 0.00 0.00 0.00 81 1014.1
20260501190015 41 15 3.5 9.6 0.00 0.00 0.00 79 1014.0
20260501184512 41 307 4.3 8.7 0.00 0.00 0.00 79 1013.9
20260501183014 43 297 2.6 9.6 0.00 0.00 0.00 81 1013.9
20260501181514 44 353 1.7 10.4 0.00 0.00 0.00 81 1013.9
20260501180013 43 321 3.5 9.6 0.00 0.00 0.00 78 1013.8
20260501174512 43 6 5.2 9.6 0.00 0.00 0.00 77 1013.7
20260501173013 43 1 2.6 8.7 0.00 0.00 0.00 76 1013.8
20260501171512 43 328 4.3 9.6 0.00 0.00 0.00 76 1013.9
20260501170016 43 332 2.6 7.0 0.00 0.00 0.00 77 1013.8
20260501164512 43 307 3.5 8.7 0.00 0.00 0.00 77 1013.9
20260501163013 42 309 2.6 8.7 0.00 0.00 0.00 82 1013.9
20260501161514 42 285 3.5 7.8 0.00 0.00 0.00 82 1014.0
20260501160017 42 330 1.7 7.8 0.00 0.00 0.00 83 1014.0
20260501154513 41 325 2.6 7.0 0.00 0.00 0.00 83 1013.9
20260501153014 41 316 3.5 8.7 0.00 0.00 0.00 83 1014.0
20260501151513 41 314 2.6 7.0 0.00 0.00 0.00 85 1014.0
20260501150013 41 323 3.5 9.6 0.00 0.00 0.00 83 1014.0
20260501144513 41 326 1.7 5.2 0.00 0.00 0.00 83 1014.0
20260501143015 42 359 1.7 7.0 0.00 0.00 0.00 84 1013.8
20260501141515 42 317 0.9 7.8 0.00 0.00 0.00 84 1013.8
20260501140013 42 343 1.7 7.0 0.00 0.00 0.00 84 1013.7
20260501134514 42 337 1.7 7.0 0.00 0.00 0.00 84 1013.8